Location: Murdochville
(48.9591°N, 65.4950°W)
Time: 10:58:04
(UTC-04:00)

ARIANE 6 FM1 Upper Stage - Visible Passes

Search period start: 11 April 2026 00:00
Search period end: 21 April 2026 00:00
Orbit: 524 x 604 km, 62.0° (Epoch: 11 April)

Date Brightness Start Highest point End Pass type
(mag) Time Alt. Az. Time Alt. Az. Time Alt. Az.
11 Apr 5.8 00:07:07 10° NNW 00:08:59 13° N 00:10:50 10° NNE visible
11 Apr 5.0 01:46:13 10° NNW 01:49:20 21° NNE 01:52:25 10° ENE visible
11 Apr 2.4 03:24:50 10° NW 03:28:50 89° NE 03:32:48 10° SE visible
11 Apr 4.3 05:05:26 10° W 05:07:12 13° WSW 05:08:58 10° SW visible
11 Apr 3.5 20:44:34 10° WSW 20:48:35 51° NW 20:52:33 10° NE visible
11 Apr 5.5 22:25:43 10° WNW 22:28:24 17° NNW 22:31:04 10° NNE visible
12 Apr 5.7 00:06:55 10° NNW 00:08:52 13° N 00:10:49 10° NE visible
12 Apr 4.7 01:45:45 10° NNW 01:49:07 25° NNE 01:52:28 10° E visible
12 Apr 2.4 03:24:30 10° NW 03:28:26 65° SW 03:32:21 10° SSE visible
12 Apr 4.1 20:44:25 10° WSW 20:48:17 39° NW 20:52:06 10° NE visible
12 Apr 5.6 22:25:50 10° NW 22:28:16 15° NNW 22:30:40 10° NNE visible
13 Apr 5.6 00:06:38 10° NNW 00:08:45 14° N 00:10:53 10° NE visible
13 Apr 4.3 01:45:17 10° NNW 01:48:37 31° NNE 01:48:37 31° NNE visible
13 Apr 4.9 03:24:11 10° NW 03:33:25 - SSE 03:24:26 11° NW visible
13 Apr 4.5 20:44:20 10° W 20:48:00 31° NNW 20:51:38 10° NNE visible
13 Apr 5.6 22:25:58 10° NW 22:28:08 14° N 22:30:17 10° NNE visible
14 Apr 5.5 00:06:15 10° NNW 00:08:38 15° NNE 00:10:51 10° NE visible
14 Apr 4.6 01:44:50 10° NW 01:46:46 24° NNW 01:46:46 24° NNW visible
14 Apr 4.9 20:44:18 10° W 20:47:46 26° NNW 20:51:10 10° NNE visible
14 Apr 5.6 22:26:02 10° NW 22:28:01 13° N 22:29:59 10° NNE visible
15 Apr 5.3 00:05:50 10° NNW 00:08:29 17° NNE 00:09:41 15° NE visible
15 Apr 4.8 01:44:23 10° NW 01:45:37 19° NNW 01:45:37 19° NNW visible
15 Apr 5.2 20:44:21 10° WNW 20:47:32 21° NNW 20:50:42 10° NNE visible
15 Apr 5.6 22:26:00 10° NNW 22:27:53 13° N 22:29:46 10° NNE visible
16 Apr 5.0 00:05:23 10° NNW 00:08:18 19° NNE 00:08:44 19° NNE visible
16 Apr 5.1 01:43:58 10° NW 01:44:41 15° NW 01:44:41 15° NW visible
16 Apr 5.4 20:44:26 10° WNW 20:47:21 19° NNW 20:50:14 10° NNE visible
16 Apr 5.5 22:25:53 10° NNW 22:27:46 13° N 22:29:39 10° NNE visible
17 Apr 4.8 00:04:55 10° NNW 00:07:55 22° NNE 00:07:55 22° NNE visible
17 Apr 5.3 01:43:34 10° NW 01:43:52 12° NW 01:43:52 12° NW visible
17 Apr 5.4 20:44:33 10° WNW 20:47:10 16° NNW 20:49:47 10° NNE visible
17 Apr 5.5 22:25:39 10° NNW 22:27:39 13° N 22:29:38 10° NE visible
18 Apr 4.7 00:04:25 10° NNW 00:07:09 25° NNE 00:07:09 25° NNE visible
18 Apr 5.4 20:44:39 10° NW 20:47:00 15° NNW 20:49:21 10° NNE visible
18 Apr 5.4 22:25:19 10° NNW 22:27:31 14° N 22:29:42 10° NE visible
19 Apr 4.6 00:03:57 10° NNW 00:06:25 27° N 00:06:25 27° N visible
19 Apr 5.4 20:44:44 10° NW 20:46:51 14° N 20:48:58 10° NNE visible
19 Apr 5.3 22:24:54 10° NNW 22:27:21 15° NNE 22:29:47 10° NE visible
20 Apr 4.5 00:03:28 10° NW 00:05:45 28° NNW 00:05:45 28° NNW visible
20 Apr 5.4 20:44:46 10° NW 20:46:43 13° N 20:48:39 10° NNE visible
20 Apr 5.0 22:24:27 10° NNW 22:27:10 17° NNE 22:29:08 13° NE visible
